Year,Month,Day,Hour,Minute,Value (Times are PST for temperature in C)
2017,06,23,00,00,19.20
2017,06,23,00,01,19.20
2017,06,23,00,02,19.20
2017,06,23,00,03,19.20
2017,06,23,00,04,19.20
2017,06,23,00,05,19.20
2017,06,23,00,06,19.30
2017,06,23,00,07,19.30
2017,06,23,00,08,19.30
2017,06,23,00,09,19.30
2017,06,23,00,10,19.30
2017,06,23,00,11,19.30
2017,06,23,00,12,19.30
2017,06,23,00,13,19.30
2017,06,23,00,14,19.20
2017,06,23,00,15,19.20
2017,06,23,00,16,19.20
2017,06,23,00,17,19.20
2017,06,23,00,18,19.20
2017,06,23,00,19,19.30
2017,06,23,00,20,19.30
2017,06,23,00,21,19.30
2017,06,23,00,22,19.30
2017,06,23,00,23,19.30
2017,06,23,00,24,19.30
2017,06,23,00,25,19.30
2017,06,23,00,26,19.30
2017,06,23,00,27,19.40
2017,06,23,00,28,19.40
2017,06,23,00,29,19.40
2017,06,23,00,30,19.40
2017,06,23,00,31,19.40
2017,06,23,00,32,19.40
2017,06,23,00,33,19.40
2017,06,23,00,34,19.40
2017,06,23,00,35,19.40
2017,06,23,00,36,19.40
2017,06,23,00,37,19.40
2017,06,23,00,38,19.50
2017,06,23,00,39,19.50
2017,06,23,00,40,19.50
2017,06,23,00,41,19.50
2017,06,23,00,42,19.50
2017,06,23,00,43,19.50
2017,06,23,00,44,19.50
2017,06,23,00,45,19.50
2017,06,23,00,46,19.50
2017,06,23,00,47,19.40
2017,06,23,00,48,19.40
2017,06,23,00,49,19.40
2017,06,23,00,50,19.50
2017,06,23,00,51,19.50
2017,06,23,00,52,19.50
2017,06,23,00,53,19.40
2017,06,23,00,54,19.40
2017,06,23,00,55,19.40
2017,06,23,00,56,19.40
2017,06,23,00,57,19.40
2017,06,23,00,58,19.40
2017,06,23,00,59,19.40
2017,06,23,01,00,19.40
2017,06,23,01,01,19.40
2017,06,23,01,02,19.40
2017,06,23,01,03,19.40
2017,06,23,01,04,19.40
2017,06,23,01,05,19.40
2017,06,23,01,06,19.40
2017,06,23,01,07,19.40
2017,06,23,01,08,19.40
2017,06,23,01,09,19.40
2017,06,23,01,10,19.40
2017,06,23,01,11,19.40
2017,06,23,01,12,19.40
2017,06,23,01,13,19.40
2017,06,23,01,14,19.40
2017,06,23,01,15,19.40
2017,06,23,01,16,19.40
2017,06,23,01,17,19.40
2017,06,23,01,18,19.30
2017,06,23,01,19,19.30
2017,06,23,01,20,19.30
2017,06,23,01,21,19.30
2017,06,23,01,22,19.30
2017,06,23,01,23,19.30
2017,06,23,01,24,19.20
2017,06,23,01,25,19.20
2017,06,23,01,26,19.20
2017,06,23,01,27,19.20
2017,06,23,01,28,19.10
2017,06,23,01,29,19.10
2017,06,23,01,30,19.10
2017,06,23,01,31,19.10
2017,06,23,01,32,19.00
2017,06,23,01,33,19.00
2017,06,23,01,34,18.90
2017,06,23,01,35,18.90
2017,06,23,01,36,18.90
2017,06,23,01,37,18.80
2017,06,23,01,38,18.80
2017,06,23,01,39,18.80
2017,06,23,01,40,18.80
2017,06,23,01,41,18.70
2017,06,23,01,42,18.70
2017,06,23,01,43,18.60
2017,06,23,01,44,18.60
2017,06,23,01,45,18.60
2017,06,23,01,46,18.50
2017,06,23,01,47,18.50
2017,06,23,01,48,18.50
2017,06,23,01,49,18.40
2017,06,23,01,50,18.40
2017,06,23,01,51,18.40
2017,06,23,01,52,18.30
2017,06,23,01,53,18.30
2017,06,23,01,54,18.30
2017,06,23,01,55,18.20
2017,06,23,01,56,18.20
2017,06,23,01,57,18.20
2017,06,23,01,58,18.20
2017,06,23,01,59,18.20
2017,06,23,02,00,18.10
2017,06,23,02,01,18.10
2017,06,23,02,02,18.10
2017,06,23,02,03,18.10
2017,06,23,02,04,18.10
2017,06,23,02,05,18.10
2017,06,23,02,06,18.10
2017,06,23,02,07,18.10
2017,06,23,02,08,18.10
2017,06,23,02,09,18.10
2017,06,23,02,10,18.10
2017,06,23,02,11,18.10
2017,06,23,02,12,18.10
2017,06,23,02,13,18.10
2017,06,23,02,14,18.10
2017,06,23,02,15,18.10
2017,06,23,02,16,18.10
2017,06,23,02,17,18.10
2017,06,23,02,18,18.10
2017,06,23,02,19,18.10
2017,06,23,02,20,18.10
2017,06,23,02,21,18.10
2017,06,23,02,22,18.10
2017,06,23,02,23,18.10
2017,06,23,02,24,18.10
2017,06,23,02,25,18.10
2017,06,23,02,26,18.10
2017,06,23,02,27,18.00
2017,06,23,02,28,18.00
2017,06,23,02,29,18.00
2017,06,23,02,30,18.00
2017,06,23,02,31,18.00
2017,06,23,02,32,17.90
2017,06,23,02,33,17.90
2017,06,23,02,34,17.90
2017,06,23,02,35,17.90
2017,06,23,02,36,17.90
2017,06,23,02,37,17.90
2017,06,23,02,38,17.90
2017,06,23,02,39,17.90
2017,06,23,02,40,17.90
2017,06,23,02,41,17.90
2017,06,23,02,42,17.90
2017,06,23,02,43,17.90
2017,06,23,02,44,17.90
2017,06,23,02,45,17.90
2017,06,23,02,46,17.90
2017,06,23,02,47,17.90
2017,06,23,02,48,17.90
2017,06,23,02,49,17.90
2017,06,23,02,50,17.90
2017,06,23,02,51,17.90
2017,06,23,02,52,17.80
2017,06,23,02,53,17.90
2017,06,23,02,54,17.80
2017,06,23,02,55,17.80
2017,06,23,02,56,17.80
2017,06,23,02,57,17.80
2017,06,23,02,58,17.80
2017,06,23,02,59,17.80
2017,06,23,03,00,17.80
2017,06,23,03,01,17.80
2017,06,23,03,02,17.80
2017,06,23,03,03,17.80
2017,06,23,03,04,17.70
2017,06,23,03,05,17.70
2017,06,23,03,06,17.70
2017,06,23,03,07,17.70
2017,06,23,03,08,17.70
2017,06,23,03,09,17.70
2017,06,23,03,10,17.70
2017,06,23,03,11,17.70
2017,06,23,03,12,17.70
2017,06,23,03,13,17.70
2017,06,23,03,14,17.70
2017,06,23,03,15,17.70
2017,06,23,03,16,17.70
2017,06,23,03,17,17.70
2017,06,23,03,18,17.70
2017,06,23,03,19,17.60
2017,06,23,03,20,17.60
2017,06,23,03,21,17.60
2017,06,23,03,22,17.60
2017,06,23,03,23,17.60
2017,06,23,03,24,17.60
2017,06,23,03,25,17.60
2017,06,23,03,26,17.60
2017,06,23,03,27,17.60
2017,06,23,03,28,17.60
2017,06,23,03,29,17.60
2017,06,23,03,30,17.60
2017,06,23,03,31,17.50
2017,06,23,03,32,17.50
2017,06,23,03,33,17.40
2017,06,23,03,34,17.40
2017,06,23,03,35,17.30
2017,06,23,03,36,17.30
2017,06,23,03,37,17.20
2017,06,23,03,38,17.20
2017,06,23,03,39,17.20
2017,06,23,03,40,17.10
2017,06,23,03,41,17.10
2017,06,23,03,42,17.00
2017,06,23,03,43,17.00
2017,06,23,03,44,16.90
2017,06,23,03,45,16.90
2017,06,23,03,46,16.90
2017,06,23,03,47,16.80
2017,06,23,03,48,16.80
2017,06,23,03,49,16.80
2017,06,23,03,50,16.70
2017,06,23,03,51,16.70
2017,06,23,03,52,16.70
2017,06,23,03,53,16.70
2017,06,23,03,54,16.70
2017,06,23,03,55,16.70
2017,06,23,03,56,16.70
2017,06,23,03,57,16.80
2017,06,23,03,58,16.80
2017,06,23,03,59,16.80
2017,06,23,04,00,16.80
2017,06,23,04,01,16.70
2017,06,23,04,02,16.70
2017,06,23,04,03,16.70
2017,06,23,04,04,16.70
2017,06,23,04,05,16.70
2017,06,23,04,06,16.70
2017,06,23,04,07,16.70
2017,06,23,04,08,16.70
2017,06,23,04,09,16.70
2017,06,23,04,10,16.70
2017,06,23,04,11,16.70
2017,06,23,04,12,16.70
2017,06,23,04,13,16.70
2017,06,23,04,14,16.70
2017,06,23,04,15,16.70
2017,06,23,04,16,16.60
2017,06,23,04,17,16.60
2017,06,23,04,18,16.60
2017,06,23,04,19,16.60
2017,06,23,04,20,16.60
2017,06,23,04,21,16.60
2017,06,23,04,22,16.60
2017,06,23,04,23,16.60
2017,06,23,04,24,16.60
2017,06,23,04,25,16.60
2017,06,23,04,26,16.50
2017,06,23,04,27,16.50
2017,06,23,04,28,16.50
2017,06,23,04,29,16.50
2017,06,23,04,30,16.50
2017,06,23,04,31,16.50
2017,06,23,04,32,16.60
2017,06,23,04,33,16.60
2017,06,23,04,34,16.60
2017,06,23,04,35,16.60
2017,06,23,04,36,16.60
2017,06,23,04,37,16.60
2017,06,23,04,38,16.70
2017,06,23,04,39,16.60
2017,06,23,04,40,16.70
2017,06,23,04,41,16.70
2017,06,23,04,42,16.70
2017,06,23,04,43,16.70
2017,06,23,04,44,16.70
2017,06,23,04,45,16.70
2017,06,23,04,46,16.70
2017,06,23,04,47,16.70
2017,06,23,04,48,16.70
2017,06,23,04,49,16.70
2017,06,23,04,50,16.70
2017,06,23,04,51,16.60
2017,06,23,04,52,16.60
2017,06,23,04,53,16.60
2017,06,23,04,54,16.60
2017,06,23,04,55,16.60
2017,06,23,04,56,16.60
2017,06,23,04,57,16.60
2017,06,23,04,58,16.60
2017,06,23,04,59,16.60
2017,06,23,05,00,16.60
2017,06,23,05,01,16.60
2017,06,23,05,02,16.60
2017,06,23,05,03,16.60
2017,06,23,05,04,16.60
2017,06,23,05,05,16.60
2017,06,23,05,06,16.60
2017,06,23,05,07,16.60
2017,06,23,05,08,16.60
2017,06,23,05,09,16.50
2017,06,23,05,10,16.60
2017,06,23,05,11,16.60
2017,06,23,05,12,16.60
2017,06,23,05,13,16.60
2017,06,23,05,14,16.60
2017,06,23,05,15,16.60
2017,06,23,05,16,16.60
2017,06,23,05,17,16.60
2017,06,23,05,18,16.60
2017,06,23,05,19,16.60
2017,06,23,05,20,16.60
2017,06,23,05,21,16.60
2017,06,23,05,22,16.60
2017,06,23,05,23,16.70
2017,06,23,05,24,16.70
2017,06,23,05,25,16.70
2017,06,23,05,26,16.70
2017,06,23,05,27,16.70
2017,06,23,05,28,16.70
2017,06,23,05,29,16.70
2017,06,23,05,30,16.70
2017,06,23,05,31,16.80
2017,06,23,05,32,16.80
2017,06,23,05,33,16.80
2017,06,23,05,34,16.80
2017,06,23,05,35,16.80
2017,06,23,05,36,16.80
2017,06,23,05,37,16.80
2017,06,23,05,38,16.80
2017,06,23,05,39,16.80
2017,06,23,05,40,16.80
2017,06,23,05,41,16.80
2017,06,23,05,42,16.80
2017,06,23,05,43,16.90
2017,06,23,05,44,16.90
2017,06,23,05,45,16.90
2017,06,23,05,46,16.90
2017,06,23,05,47,16.90
2017,06,23,05,48,16.90
2017,06,23,05,49,16.90
2017,06,23,05,50,16.90
2017,06,23,05,51,16.90
2017,06,23,05,52,16.90
2017,06,23,05,53,16.90
2017,06,23,05,54,16.90
2017,06,23,05,55,16.90
2017,06,23,05,56,16.90
2017,06,23,05,57,16.90
2017,06,23,05,58,16.80
2017,06,23,05,59,16.80
2017,06,23,06,00,16.90
2017,06,23,06,01,16.90
2017,06,23,06,02,16.90
2017,06,23,06,03,16.80
2017,06,23,06,04,16.80
2017,06,23,06,05,16.90
2017,06,23,06,06,16.90
2017,06,23,06,07,16.90
2017,06,23,06,08,16.90
2017,06,23,06,09,16.90
2017,06,23,06,10,16.90
2017,06,23,06,11,16.90
2017,06,23,06,12,17.00
2017,06,23,06,13,17.10
2017,06,23,06,14,17.10
2017,06,23,06,15,17.20
2017,06,23,06,16,17.20
2017,06,23,06,17,17.30
2017,06,23,06,18,17.30
2017,06,23,06,19,17.30
2017,06,23,06,20,17.40
2017,06,23,06,21,17.40
2017,06,23,06,22,17.40
2017,06,23,06,23,17.30
2017,06,23,06,24,17.30
2017,06,23,06,25,17.20
2017,06,23,06,26,17.20
2017,06,23,06,27,17.20
2017,06,23,06,28,17.20
2017,06,23,06,29,17.20
2017,06,23,06,30,17.10
2017,06,23,06,31,17.10
2017,06,23,06,32,16.90
2017,06,23,06,33,16.80
2017,06,23,06,34,16.70
2017,06,23,06,35,16.60
2017,06,23,06,36,16.70
2017,06,23,06,37,16.70
2017,06,23,06,38,16.70
2017,06,23,06,39,16.80
2017,06,23,06,40,16.80
2017,06,23,06,41,16.90
2017,06,23,06,42,17.00
2017,06,23,06,43,17.00
2017,06,23,06,44,17.10
2017,06,23,06,45,17.20
2017,06,23,06,46,17.20
2017,06,23,06,47,17.30
2017,06,23,06,48,17.30
2017,06,23,06,49,17.20
2017,06,23,06,50,17.30
2017,06,23,06,51,17.20
2017,06,23,06,52,17.10
2017,06,23,06,53,17.10
2017,06,23,06,54,17.00
2017,06,23,06,55,16.90
2017,06,23,06,56,16.90
2017,06,23,06,57,16.80
2017,06,23,06,58,16.80
2017,06,23,06,59,16.80
2017,06,23,07,00,16.80
2017,06,23,07,01,16.80
2017,06,23,07,02,16.80
2017,06,23,07,03,16.90
2017,06,23,07,04,16.90
2017,06,23,07,05,17.00
2017,06,23,07,06,17.00
2017,06,23,07,07,17.10
2017,06,23,07,08,17.20
2017,06,23,07,09,17.30
2017,06,23,07,10,17.30
2017,06,23,07,11,17.40
2017,06,23,07,12,17.60
2017,06,23,07,13,17.70
2017,06,23,07,14,17.80
2017,06,23,07,15,17.90
2017,06,23,07,16,17.90
2017,06,23,07,17,18.00
2017,06,23,07,18,18.00
2017,06,23,07,19,18.10
2017,06,23,07,20,18.20
2017,06,23,07,21,18.20
2017,06,23,07,22,18.30
2017,06,23,07,23,18.30
2017,06,23,07,24,18.30
2017,06,23,07,25,18.40
2017,06,23,07,26,18.40
2017,06,23,07,27,18.40
2017,06,23,07,28,18.50
2017,06,23,07,29,18.50
2017,06,23,07,30,18.40
2017,06,23,07,31,18.40
2017,06,23,07,32,18.30
2017,06,23,07,33,18.30
2017,06,23,07,34,18.30
2017,06,23,07,35,18.40
2017,06,23,07,36,18.40
2017,06,23,07,37,18.40
2017,06,23,07,38,18.50
2017,06,23,07,39,18.50
2017,06,23,07,40,18.50
2017,06,23,07,41,18.50
2017,06,23,07,42,18.50
2017,06,23,07,43,18.50
2017,06,23,07,44,18.60
2017,06,23,07,45,18.60
2017,06,23,07,46,18.60
2017,06,23,07,47,18.70
2017,06,23,07,48,18.60
2017,06,23,07,49,18.60
2017,06,23,07,50,18.50
2017,06,23,07,51,18.40
2017,06,23,07,52,18.40
2017,06,23,07,53,18.40
2017,06,23,07,54,18.40
2017,06,23,07,55,18.40
2017,06,23,07,56,18.50
2017,06,23,07,57,18.60
2017,06,23,07,58,18.60
2017,06,23,07,59,18.60
2017,06,23,08,00,18.50
2017,06,23,08,01,18.50
2017,06,23,08,02,18.50
2017,06,23,08,03,18.50
2017,06,23,08,04,18.40
2017,06,23,08,05,18.40
2017,06,23,08,06,18.40
2017,06,23,08,07,18.40
2017,06,23,08,08,18.40
2017,06,23,08,09,18.40
2017,06,23,08,10,18.40
2017,06,23,08,11,18.40
2017,06,23,08,12,18.50
2017,06,23,08,13,18.50
2017,06,23,08,14,18.50
2017,06,23,08,15,18.50
2017,06,23,08,16,18.50
2017,06,23,08,17,18.60
2017,06,23,08,18,18.60
2017,06,23,08,19,18.60
2017,06,23,08,20,18.70
2017,06,23,08,21,18.70
2017,06,23,08,22,18.80
2017,06,23,08,23,18.90
2017,06,23,08,24,19.00
2017,06,23,08,25,19.00
2017,06,23,08,26,19.00
2017,06,23,08,27,19.00
2017,06,23,08,28,19.10
2017,06,23,08,29,19.10
2017,06,23,08,30,19.20
2017,06,23,08,31,19.20
2017,06,23,08,32,19.20
2017,06,23,08,33,19.20
2017,06,23,08,34,19.10
2017,06,23,08,35,19.10
2017,06,23,08,36,19.20
2017,06,23,08,37,19.20
2017,06,23,08,38,19.30
2017,06,23,08,39,19.40
2017,06,23,08,40,19.40
2017,06,23,08,41,19.40
2017,06,23,08,42,19.40
2017,06,23,08,43,19.40
2017,06,23,08,44,19.40
2017,06,23,08,45,19.40
2017,06,23,08,46,19.40
2017,06,23,08,47,19.40
2017,06,23,08,48,19.40
2017,06,23,08,49,19.40
2017,06,23,08,50,19.40
2017,06,23,08,51,19.50
2017,06,23,08,52,19.50
2017,06,23,08,53,19.60
2017,06,23,08,54,19.60
2017,06,23,08,55,19.70
2017,06,23,08,56,19.70
2017,06,23,08,57,19.80
2017,06,23,08,58,19.80
2017,06,23,08,59,19.80
2017,06,23,09,00,19.80
2017,06,23,09,01,19.80
2017,06,23,09,02,19.80
2017,06,23,09,03,19.80
2017,06,23,09,04,19.70
2017,06,23,09,05,19.70
2017,06,23,09,06,19.70
2017,06,23,09,07,19.80
2017,06,23,09,08,19.80
2017,06,23,09,09,19.80
2017,06,23,09,10,19.80
2017,06,23,09,11,19.80
2017,06,23,09,12,19.70
2017,06,23,09,13,19.70
2017,06,23,09,14,19.70
2017,06,23,09,15,19.80
2017,06,23,09,16,19.80
2017,06,23,09,17,19.80
2017,06,23,09,18,19.80
2017,06,23,09,19,19.80
2017,06,23,09,20,19.90
2017,06,23,09,21,20.00
2017,06,23,09,22,20.00
2017,06,23,09,23,20.00
2017,06,23,09,24,20.10
2017,06,23,09,25,20.20
2017,06,23,09,26,20.30
2017,06,23,09,27,20.30
2017,06,23,09,28,20.40
2017,06,23,09,29,20.40
2017,06,23,09,30,20.50
2017,06,23,09,31,20.50
2017,06,23,09,32,20.50
2017,06,23,09,33,20.50
2017,06,23,09,34,20.50
2017,06,23,09,35,20.60
2017,06,23,09,36,20.60
2017,06,23,09,37,20.50
2017,06,23,09,38,20.50
2017,06,23,09,39,20.40
2017,06,23,09,40,20.40
2017,06,23,09,41,20.40
2017,06,23,09,42,20.30
2017,06,23,09,43,20.20
2017,06,23,09,44,20.20
2017,06,23,09,45,20.20
2017,06,23,09,46,20.20
2017,06,23,09,47,20.20
2017,06,23,09,48,20.20
2017,06,23,09,49,20.20
2017,06,23,09,50,20.20
2017,06,23,09,51,20.30
2017,06,23,09,52,20.30
2017,06,23,09,53,20.30
2017,06,23,09,54,20.30
2017,06,23,09,55,20.40
2017,06,23,09,56,20.40
2017,06,23,09,57,20.40
2017,06,23,09,58,20.40
2017,06,23,09,59,20.40
2017,06,23,10,00,20.40
2017,06,23,10,01,20.40
2017,06,23,10,02,20.40
2017,06,23,10,03,20.40
2017,06,23,10,04,20.40
2017,06,23,10,05,20.40
2017,06,23,10,06,20.40
2017,06,23,10,07,20.40
2017,06,23,10,08,20.40
2017,06,23,10,09,20.50
2017,06,23,10,10,20.60
2017,06,23,10,11,20.60
2017,06,23,10,12,20.60
2017,06,23,10,13,20.60
2017,06,23,10,14,20.60
2017,06,23,10,15,20.60
2017,06,23,10,16,20.70
2017,06,23,10,17,20.70
2017,06,23,10,18,20.70
2017,06,23,10,19,20.70
2017,06,23,10,20,20.80
2017,06,23,10,21,20.80
2017,06,23,10,22,20.80
2017,06,23,10,23,20.70
2017,06,23,10,24,20.60
2017,06,23,10,25,20.60
2017,06,23,10,26,20.60
2017,06,23,10,27,20.60
2017,06,23,10,28,20.50
2017,06,23,10,29,20.50
2017,06,23,10,30,20.50
2017,06,23,10,31,20.60
2017,06,23,10,32,20.60
2017,06,23,10,33,20.70
2017,06,23,10,34,20.70
2017,06,23,10,35,20.70
2017,06,23,10,36,20.80
2017,06,23,10,37,20.80
2017,06,23,10,38,20.90
2017,06,23,10,39,20.90
2017,06,23,10,40,21.00
2017,06,23,10,41,21.10
2017,06,23,10,42,21.10
2017,06,23,10,43,21.20
2017,06,23,10,44,21.30
2017,06,23,10,45,21.50
2017,06,23,10,46,21.60
2017,06,23,10,47,21.70
2017,06,23,10,48,21.70
2017,06,23,10,49,21.80
2017,06,23,10,50,21.80
2017,06,23,10,51,21.80
2017,06,23,10,52,21.80
2017,06,23,10,53,21.80
2017,06,23,10,54,21.80
2017,06,23,10,55,21.80
2017,06,23,10,56,21.80
2017,06,23,10,57,21.80
2017,06,23,10,58,21.80
2017,06,23,10,59,21.80
2017,06,23,11,00,21.90
2017,06,23,11,01,22.00
2017,06,23,11,02,22.00
2017,06,23,11,03,22.00
2017,06,23,11,04,22.10
2017,06,23,11,05,22.10
2017,06,23,11,06,22.00
2017,06,23,11,07,22.00
2017,06,23,11,08,22.00
2017,06,23,11,09,22.00
2017,06,23,11,10,22.00
2017,06,23,11,11,22.10
2017,06,23,11,12,22.10
2017,06,23,11,13,22.10
2017,06,23,11,14,22.10
2017,06,23,11,15,22.20
2017,06,23,11,16,22.10
2017,06,23,11,17,22.10
2017,06,23,11,18,22.10
2017,06,23,11,19,22.10
2017,06,23,11,20,22.10
2017,06,23,11,21,22.10
2017,06,23,11,22,22.20
2017,06,23,11,23,22.20
2017,06,23,11,24,22.20
2017,06,23,11,25,22.30
2017,06,23,11,26,22.40
2017,06,23,11,27,22.40
2017,06,23,11,28,22.40
2017,06,23,11,29,22.50
2017,06,23,11,30,22.50
2017,06,23,11,31,22.40
2017,06,23,11,32,22.40
2017,06,23,11,33,22.50
2017,06,23,11,34,22.50
2017,06,23,11,35,22.60
2017,06,23,11,36,22.60
2017,06,23,11,37,22.60
2017,06,23,11,38,22.70
2017,06,23,11,39,22.70
2017,06,23,11,40,22.70
2017,06,23,11,41,22.70
2017,06,23,11,42,22.70
2017,06,23,11,43,22.70
2017,06,23,11,44,22.70
2017,06,23,11,45,22.60
2017,06,23,11,46,22.60
2017,06,23,11,47,22.60
2017,06,23,11,48,22.60
2017,06,23,11,49,22.50
2017,06,23,11,50,22.50
2017,06,23,11,51,22.40
2017,06,23,11,52,22.30
2017,06,23,11,53,22.30
2017,06,23,11,54,22.30
2017,06,23,11,55,22.20
2017,06,23,11,56,22.20
2017,06,23,11,57,22.10
2017,06,23,11,58,22.10
2017,06,23,11,59,22.00
2017,06,23,12,00,22.10
2017,06,23,12,01,22.10
2017,06,23,12,02,22.20
2017,06,23,12,03,22.20
2017,06,23,12,04,22.30
2017,06,23,12,05,22.40
2017,06,23,12,06,22.40
2017,06,23,12,07,22.40
2017,06,23,12,08,22.40
2017,06,23,12,09,22.40
2017,06,23,12,10,22.40
2017,06,23,12,11,22.40
2017,06,23,12,12,22.50
2017,06,23,12,13,22.50
2017,06,23,12,14,22.60
2017,06,23,12,15,22.60
2017,06,23,12,16,22.70
2017,06,23,12,17,22.80
2017,06,23,12,18,22.90
2017,06,23,12,19,23.00
2017,06,23,12,20,23.00
2017,06,23,12,21,23.10
2017,06,23,12,22,23.10
2017,06,23,12,23,23.10
2017,06,23,12,24,23.10
2017,06,23,12,25,23.10
2017,06,23,12,26,23.10
2017,06,23,12,27,23.10
2017,06,23,12,28,23.10
2017,06,23,12,29,23.20
2017,06,23,12,30,23.20
2017,06,23,12,31,23.20
2017,06,23,12,32,23.30
2017,06,23,12,33,23.40
2017,06,23,12,34,23.50
2017,06,23,12,35,23.50
2017,06,23,12,36,23.50
2017,06,23,12,37,23.50
2017,06,23,12,38,23.40
2017,06,23,12,39,23.30
2017,06,23,12,40,23.20
2017,06,23,12,41,23.10
2017,06,23,12,42,23.10
2017,06,23,12,43,23.20
2017,06,23,12,44,23.20
2017,06,23,12,45,23.20
2017,06,23,12,46,23.20
2017,06,23,12,47,23.30
2017,06,23,12,48,23.30
2017,06,23,12,49,23.30
2017,06,23,12,50,23.40
2017,06,23,12,51,23.40
2017,06,23,12,52,23.40
2017,06,23,12,53,23.40
2017,06,23,12,54,23.40
2017,06,23,12,55,23.40
2017,06,23,12,56,23.30
2017,06,23,12,57,23.30
2017,06,23,12,58,23.40
2017,06,23,12,59,23.30
2017,06,23,13,00,23.30
2017,06,23,13,01,23.40
2017,06,23,13,02,23.40
2017,06,23,13,03,23.40
2017,06,23,13,04,23.40
2017,06,23,13,05,23.30
2017,06,23,13,06,23.20
2017,06,23,13,07,23.20
2017,06,23,13,08,23.10
2017,06,23,13,09,23.00
2017,06,23,13,10,22.90
2017,06,23,13,11,22.90
2017,06,23,13,12,22.90
2017,06,23,13,13,22.80
2017,06,23,13,14,22.80
2017,06,23,13,15,22.90
2017,06,23,13,16,22.90
2017,06,23,13,17,22.90
2017,06,23,13,18,22.90
2017,06,23,13,19,22.90
2017,06,23,13,20,22.90
2017,06,23,13,21,22.90
2017,06,23,13,22,22.90
2017,06,23,13,23,23.00
2017,06,23,13,24,23.10
2017,06,23,13,25,23.10
2017,06,23,13,26,23.10
2017,06,23,13,27,23.00
2017,06,23,13,28,23.00
2017,06,23,13,29,22.90
2017,06,23,13,30,22.90
2017,06,23,13,31,23.00
2017,06,23,13,32,23.00
2017,06,23,13,33,23.10
2017,06,23,13,34,23.10
2017,06,23,13,35,23.20
2017,06,23,13,36,23.20
2017,06,23,13,37,23.20
2017,06,23,13,38,23.20
2017,06,23,13,39,23.30
2017,06,23,13,40,23.30
2017,06,23,13,41,23.40
2017,06,23,13,42,23.50
2017,06,23,13,43,23.60
2017,06,23,13,44,23.70
2017,06,23,13,45,23.70
2017,06,23,13,46,23.70
2017,06,23,13,47,23.70
2017,06,23,13,48,23.60
2017,06,23,13,49,23.50
2017,06,23,13,50,23.50
2017,06,23,13,51,23.40
2017,06,23,13,52,23.40
2017,06,23,13,53,23.40
2017,06,23,13,54,23.40
2017,06,23,13,55,23.40
2017,06,23,13,56,23.40
2017,06,23,13,57,23.40
2017,06,23,13,58,23.50
2017,06,23,13,59,23.50
2017,06,23,14,00,23.40
2017,06,23,14,01,23.50
2017,06,23,14,02,23.50
2017,06,23,14,03,23.50
2017,06,23,14,04,23.60
2017,06,23,14,05,23.60
2017,06,23,14,06,23.60
2017,06,23,14,07,23.60
2017,06,23,14,08,23.60
2017,06,23,14,09,23.60
2017,06,23,14,10,23.70
2017,06,23,14,11,23.70
2017,06,23,14,12,23.70
2017,06,23,14,13,23.70
2017,06,23,14,14,23.70
2017,06,23,14,15,23.70
2017,06,23,14,16,23.70
2017,06,23,14,17,23.80
2017,06,23,14,18,23.80
2017,06,23,14,19,23.90
2017,06,23,14,20,23.90
2017,06,23,14,21,24.00
2017,06,23,14,22,24.00
2017,06,23,14,23,24.10
2017,06,23,14,24,24.10
2017,06,23,14,25,24.10
2017,06,23,14,26,24.20
2017,06,23,14,27,24.20
2017,06,23,14,28,24.30
2017,06,23,14,29,24.30
2017,06,23,14,30,24.30
2017,06,23,14,31,24.30
2017,06,23,14,32,24.30
2017,06,23,14,33,24.30
2017,06,23,14,34,24.40
2017,06,23,14,35,24.40
2017,06,23,14,36,24.40
2017,06,23,14,37,24.50
2017,06,23,14,38,24.50
2017,06,23,14,39,24.60
2017,06,23,14,40,24.60
2017,06,23,14,41,24.60
2017,06,23,14,42,24.60
2017,06,23,14,43,24.60
2017,06,23,14,44,24.60
2017,06,23,14,45,24.60
2017,06,23,14,46,24.60
2017,06,23,14,47,24.60
2017,06,23,14,48,24.70
2017,06,23,14,49,24.80
2017,06,23,14,50,24.80
2017,06,23,14,51,24.80
2017,06,23,14,52,24.80
2017,06,23,14,53,24.80
2017,06,23,14,54,24.80
2017,06,23,14,55,24.80
2017,06,23,14,56,24.80
2017,06,23,14,57,24.80
2017,06,23,14,58,24.80
2017,06,23,14,59,24.70
2017,06,23,15,00,24.70
2017,06,23,15,01,24.80
2017,06,23,15,02,24.80
2017,06,23,15,03,24.70
2017,06,23,15,04,24.70
2017,06,23,15,05,24.70
2017,06,23,15,06,24.80
2017,06,23,15,07,24.80
2017,06,23,15,08,24.90
2017,06,23,15,09,24.90
2017,06,23,15,10,25.00
2017,06,23,15,11,25.00
2017,06,23,15,12,25.00
2017,06,23,15,13,25.10
2017,06,23,15,14,25.20
2017,06,23,15,15,25.20
2017,06,23,15,16,25.30
2017,06,23,15,17,25.30
2017,06,23,15,18,25.40
2017,06,23,15,19,25.40
2017,06,23,15,20,25.50
2017,06,23,15,21,25.50
2017,06,23,15,22,25.60
2017,06,23,15,23,25.60
2017,06,23,15,24,25.60
2017,06,23,15,25,25.60
2017,06,23,15,26,25.60
2017,06,23,15,27,25.70
2017,06,23,15,28,25.70
2017,06,23,15,29,25.80
2017,06,23,15,30,25.80
2017,06,23,15,31,25.70
2017,06,23,15,32,25.70
2017,06,23,15,33,25.70
2017,06,23,15,34,25.50
2017,06,23,15,35,25.40
2017,06,23,15,36,25.40
2017,06,23,15,37,25.40
2017,06,23,15,38,25.40
2017,06,23,15,39,25.50
2017,06,23,15,40,25.60
2017,06,23,15,41,25.70
2017,06,23,15,42,25.80
2017,06,23,15,43,25.80
2017,06,23,15,44,25.80
2017,06,23,15,45,25.80
2017,06,23,15,46,25.80
2017,06,23,15,47,25.90
2017,06,23,15,48,25.90
2017,06,23,15,49,25.90
2017,06,23,15,50,25.90
2017,06,23,15,51,25.90
2017,06,23,15,52,25.90
2017,06,23,15,53,25.90
2017,06,23,15,54,25.90
2017,06,23,15,55,25.90
2017,06,23,15,56,25.90
2017,06,23,15,57,25.90
2017,06,23,15,58,25.90
2017,06,23,15,59,25.80
2017,06,23,16,00,25.80
2017,06,23,16,01,25.80
2017,06,23,16,02,25.80
2017,06,23,16,03,25.80
2017,06,23,16,04,25.90
2017,06,23,16,05,25.90
2017,06,23,16,06,25.90
2017,06,23,16,07,25.90
2017,06,23,16,08,25.90
2017,06,23,16,09,25.90
2017,06,23,16,10,26.00
2017,06,23,16,11,26.10
2017,06,23,16,12,26.20
2017,06,23,16,13,26.30
2017,06,23,16,14,26.40
2017,06,23,16,15,26.40
2017,06,23,16,16,26.40
2017,06,23,16,17,26.40
2017,06,23,16,18,26.40
2017,06,23,16,19,26.50
2017,06,23,16,20,26.60
2017,06,23,16,21,26.60
2017,06,23,16,22,26.60
2017,06,23,16,23,26.60
2017,06,23,16,24,26.60
2017,06,23,16,25,26.50
2017,06,23,16,26,26.40
2017,06,23,16,27,26.40
2017,06,23,16,28,26.50
2017,06,23,16,29,26.50
2017,06,23,16,30,26.50
2017,06,23,16,31,26.40
2017,06,23,16,32,26.50
2017,06,23,16,33,26.50
2017,06,23,16,34,26.60
2017,06,23,16,35,26.60
2017,06,23,16,36,26.60
2017,06,23,16,37,26.60
2017,06,23,16,38,26.60
2017,06,23,16,39,26.70
2017,06,23,16,40,26.80
2017,06,23,16,41,26.90
2017,06,23,16,42,26.90
2017,06,23,16,43,26.90
2017,06,23,16,44,26.90
2017,06,23,16,45,26.90
2017,06,23,16,46,26.90
2017,06,23,16,47,26.90
2017,06,23,16,48,26.90
2017,06,23,16,49,26.90
2017,06,23,16,50,26.80
2017,06,23,16,51,26.80
2017,06,23,16,52,26.80
2017,06,23,16,53,26.80
2017,06,23,16,54,26.80
2017,06,23,16,55,26.80
2017,06,23,16,56,26.80
2017,06,23,16,57,26.90
2017,06,23,16,58,26.90
2017,06,23,16,59,26.90
2017,06,23,17,00,26.90
2017,06,23,17,01,26.90
2017,06,23,17,02,26.90
2017,06,23,17,03,26.80
2017,06,23,17,04,26.80
2017,06,23,17,05,26.80
2017,06,23,17,06,26.80
2017,06,23,17,07,26.90
2017,06,23,17,08,27.00
2017,06,23,17,09,27.10
2017,06,23,17,10,27.10
2017,06,23,17,11,27.10
2017,06,23,17,12,27.10
2017,06,23,17,13,27.10
2017,06,23,17,14,27.20
2017,06,23,17,15,27.20
2017,06,23,17,16,27.20
2017,06,23,17,17,27.20
2017,06,23,17,18,27.10
2017,06,23,17,19,27.10